Time,TemperatureF,DewpointF,PressureIn,WindDirection,WindDirectionDegrees,WindSpeedMPH,WindSpeedGustMPH,Humidity,HourlyPrecipIn,Conditions,Clouds,dailyrainin,SoftwareType,DateUTC
2013-02-22 00:01:00,21.0,14.0,30.12,East,90,7.0,12.0,75,0.00,,,0.00,,2013-02-22 06:01:00,
2013-02-22 00:12:00,21.0,14.0,30.11,East,95,6.0,15.0,75,0.00,,,0.00,,2013-02-22 06:12:00,
2013-02-22 00:21:00,21.0,14.0,30.11,East,95,6.0,15.0,75,0.00,,,0.00,,2013-02-22 06:21:00,
2013-02-22 00:31:00,21.0,15.0,30.11,East,79,7.0,10.0,76,0.00,,,0.00,,2013-02-22 06:31:00,
2013-02-22 00:42:00,21.0,15.0,30.11,East,79,7.0,10.0,76,0.00,,,0.00,,2013-02-22 06:42:00,
2013-02-22 00:51:00,21.0,15.0,30.10,ENE,71,8.0,11.0,76,0.00,,,0.00,,2013-02-22 06:51:00,
2013-02-22 01:01:00,21.0,15.0,30.10,ENE,71,8.0,11.0,76,0.00,,,0.00,,2013-02-22 07:01:00,
2013-02-22 01:11:00,21.0,16.0,30.09,ESE,103,12.0,18.0,80,0.00,,,0.00,,2013-02-22 07:11:00,
2013-02-22 01:21:00,21.0,16.0,30.09,ESE,103,12.0,18.0,80,0.00,,,0.00,,2013-02-22 07:21:00,
2013-02-22 01:31:00,22.0,18.0,30.07,ENE,75,16.0,22.0,83,0.00,,,0.00,,2013-02-22 07:31:00,
2013-02-22 01:42:00,22.0,18.0,30.05,ENE,69,14.0,23.0,85,0.00,,,0.00,,2013-02-22 07:42:00,
2013-02-22 01:51:00,22.0,18.0,30.05,ENE,69,14.0,23.0,85,0.00,,,0.00,,2013-02-22 07:51:00,
2013-02-22 02:01:00,22.0,18.0,30.05,ENE,69,14.0,23.0,85,0.00,,,0.00,,2013-02-22 08:01:00,
2013-02-22 02:11:00,21.0,18.0,30.04,ENE,58,13.0,19.0,88,0.00,,,0.00,,2013-02-22 08:11:00,
2013-02-22 02:21:00,21.0,18.0,30.04,ENE,58,13.0,19.0,88,0.00,,,0.00,,2013-02-22 08:21:00,
2013-02-22 02:31:00,21.0,18.0,30.03,East,92,14.0,22.0,89,0.00,,,0.00,,2013-02-22 08:31:00,
2013-02-22 02:42:00,21.0,18.0,30.03,East,92,14.0,22.0,89,0.00,,,0.00,,2013-02-22 08:42:00,
2013-02-22 02:52:00,21.0,18.0,30.02,ENE,72,14.0,21.0,89,0.00,,,0.00,,2013-02-22 08:52:00,
2013-02-22 03:03:00,21.0,18.0,29.99,ENE,63,15.0,19.0,89,0.00,,,0.00,,2013-02-22 09:03:00,
2013-02-22 03:11:00,21.0,18.0,29.98,ENE,59,13.0,19.0,89,0.00,,,0.00,,2013-02-22 09:11:00,
2013-02-22 03:21:00,21.0,18.0,29.98,ENE,59,13.0,19.0,89,0.00,,,0.00,,2013-02-22 09:21:00,
2013-02-22 03:32:00,21.0,18.0,29.96,ENE,62,14.0,21.0,89,0.00,,,0.00,,2013-02-22 09:32:00,
2013-02-22 03:42:00,21.0,18.0,29.95,ENE,70,14.0,23.0,89,0.00,,,0.00,,2013-02-22 09:42:00,
2013-02-22 03:51:00,21.0,18.0,29.95,ENE,70,14.0,23.0,89,0.00,,,0.00,,2013-02-22 09:51:00,
2013-02-22 04:01:00,21.0,18.0,29.94,ENE,61,14.0,22.0,88,0.00,,,0.00,,2013-02-22 10:01:00,
2013-02-22 04:11:00,21.0,18.0,29.95,ENE,69,10.0,21.0,88,0.00,,,0.00,,2013-02-22 10:11:00,
2013-02-22 04:21:00,21.0,18.0,29.95,ENE,69,10.0,21.0,88,0.00,,,0.00,,2013-02-22 10:21:00,
2013-02-22 04:32:00,21.0,18.0,29.95,East,79,11.0,19.0,88,0.00,,,0.00,,2013-02-22 10:32:00,
2013-02-22 04:42:00,21.0,18.0,29.95,East,79,11.0,19.0,88,0.00,,,0.00,,2013-02-22 10:42:00,
2013-02-22 04:51:00,21.0,18.0,29.94,NE,49,9.0,17.0,89,0.00,,,0.00,,2013-02-22 10:51:00,
2013-02-22 05:01:00,21.0,18.0,29.93,ENE,65,9.0,14.0,89,0.00,,,0.00,,2013-02-22 11:01:00,
2013-02-22 05:11:00,21.0,19.0,29.94,ENE,69,9.0,13.0,90,0.00,,,0.00,,2013-02-22 11:11:00,
2013-02-22 05:21:00,21.0,19.0,29.94,ENE,69,9.0,13.0,90,0.00,,,0.00,,2013-02-22 11:21:00,
2013-02-22 05:32:00,20.0,18.0,29.93,ENE,60,7.0,12.0,90,0.00,,,0.00,,2013-02-22 11:32:00,
2013-02-22 05:42:00,20.0,18.0,29.93,ENE,60,7.0,12.0,90,0.00,,,0.00,,2013-02-22 11:42:00,
2013-02-22 05:52:00,20.0,18.0,29.93,ENE,66,9.0,12.0,90,0.00,,,0.00,,2013-02-22 11:52:00,
2013-02-22 06:02:00,20.0,18.0,29.93,ENE,69,7.0,11.0,90,0.00,,,0.00,,2013-02-22 12:02:00,
2013-02-22 06:11:00,20.0,18.0,29.93,ENE,69,7.0,11.0,90,0.00,,,0.00,,2013-02-22 12:11:00,
2013-02-22 06:21:00,20.0,18.0,29.93,NE,54,7.0,10.0,90,0.00,,,0.00,,2013-02-22 12:21:00,
2013-02-22 06:32:00,20.0,18.0,29.93,NE,54,7.0,10.0,90,0.00,,,0.00,,2013-02-22 12:32:00,
2013-02-22 06:42:00,20.0,18.0,29.93,NE,54,7.0,10.0,90,0.00,,,0.00,,2013-02-22 12:42:00,
2013-02-22 06:52:00,20.0,18.0,29.92,ENE,63,6.0,11.0,90,0.00,,,0.00,,2013-02-22 12:52:00,
2013-02-22 07:02:00,20.0,18.0,29.92,NE,53,7.0,10.0,90,0.00,,,0.00,,2013-02-22 13:02:00,
2013-02-22 07:11:00,20.0,18.0,29.92,NE,53,7.0,10.0,90,0.00,,,0.00,,2013-02-22 13:11:00,
2013-02-22 07:22:00,20.0,18.0,29.91,ENE,60,6.0,12.0,90,0.00,,,0.00,,2013-02-22 13:22:00,
2013-02-22 07:32:00,20.0,18.0,29.91,NE,38,7.0,11.0,90,0.00,,,0.00,,2013-02-22 13:32:00,
2013-02-22 07:42:00,20.0,18.0,29.91,NE,38,7.0,11.0,90,0.00,,,0.00,,2013-02-22 13:42:00,
2013-02-22 07:52:00,20.0,18.0,29.91,NE,46,8.0,11.0,90,0.00,,,0.00,,2013-02-22 13:52:00,
2013-02-22 08:01:00,20.0,18.0,29.91,NE,56,8.0,12.0,90,0.00,,,0.00,,2013-02-22 14:01:00,
2013-02-22 08:11:00,21.0,18.0,29.91,NE,49,8.0,13.0,89,0.00,,,0.00,,2013-02-22 14:11:00,
2013-02-22 08:21:00,21.0,18.0,29.91,NE,49,8.0,13.0,89,0.00,,,0.00,,2013-02-22 14:21:00,
2013-02-22 08:32:00,21.0,18.0,29.90,ENE,59,8.0,12.0,89,0.00,,,0.00,,2013-02-22 14:32:00,
2013-02-22 08:42:00,21.0,18.0,29.90,NE,45,7.0,12.0,89,0.00,,,0.00,,2013-02-22 14:42:00,
2013-02-22 08:52:00,21.0,18.0,29.90,NE,45,7.0,12.0,89,0.00,,,0.00,,2013-02-22 14:52:00,
2013-02-22 09:01:00,21.0,18.0,29.90,ENE,65,7.0,13.0,89,0.00,,,0.00,,2013-02-22 15:01:00,
2013-02-22 09:11:00,22.0,19.0,29.90,ENE,63,8.0,10.0,89,0.00,,,0.00,,2013-02-22 15:11:00,
2013-02-22 09:21:00,22.0,19.0,29.90,ENE,63,8.0,10.0,89,0.00,,,0.00,,2013-02-22 15:21:00,
2013-02-22 09:32:00,22.0,19.0,29.89,NE,49,7.0,11.0,89,0.00,,,0.00,,2013-02-22 15:32:00,
2013-02-22 09:42:00,22.0,19.0,29.89,NE,49,7.0,11.0,89,0.00,,,0.00,,2013-02-22 15:42:00,
2013-02-22 09:52:00,22.0,19.0,29.89,NE,50,7.0,11.0,89,0.00,,,0.00,,2013-02-22 15:52:00,
2013-02-22 10:01:00,22.0,19.0,29.88,ENE,70,8.0,12.0,88,0.00,,,0.00,,2013-02-22 16:01:00,
2013-02-22 10:12:00,23.0,20.0,29.88,NE,49,7.0,12.0,88,0.00,,,0.00,,2013-02-22 16:12:00,
2013-02-22 10:21:00,23.0,20.0,29.88,NE,49,7.0,12.0,88,0.00,,,0.00,,2013-02-22 16:21:00,
2013-02-22 10:32:00,23.0,20.0,29.88,NE,56,8.0,11.0,87,0.00,,,0.00,,2013-02-22 16:32:00,
2013-02-22 10:42:00,23.0,20.0,29.88,NE,56,8.0,11.0,87,0.00,,,0.00,,2013-02-22 16:42:00,
2013-02-22 10:52:00,24.0,21.0,29.87,ENE,63,7.0,12.0,87,0.00,,,0.00,,2013-02-22 16:52:00,
2013-02-22 11:01:00,24.0,20.0,29.87,ENE,57,9.0,12.0,86,0.00,,,0.00,,2013-02-22 17:01:00,
2013-02-22 11:11:00,24.0,21.0,29.87,ENE,62,8.0,11.0,87,0.00,,,0.00,,2013-02-22 17:11:00,
2013-02-22 11:21:00,24.0,21.0,29.87,ENE,62,8.0,11.0,87,0.00,,,0.00,,2013-02-22 17:21:00,
2013-02-22 11:32:00,24.0,20.0,29.86,ENE,57,7.0,12.0,86,0.00,,,0.00,,2013-02-22 17:32:00,
2013-02-22 11:42:00,24.0,20.0,29.86,ENE,57,7.0,12.0,86,0.00,,,0.00,,2013-02-22 17:42:00,
2013-02-22 11:52:00,25.0,21.0,29.86,NE,56,8.0,11.0,86,0.00,,,0.00,,2013-02-22 17:52:00,
2013-02-22 12:01:00,25.0,21.0,29.85,ENE,61,6.0,10.0,86,0.00,,,0.00,,2013-02-22 18:01:00,
2013-02-22 12:12:00,25.0,21.0,29.85,ENE,60,7.0,10.0,85,0.00,,,0.00,,2013-02-22 18:12:00,
2013-02-22 12:22:00,25.0,21.0,29.85,ENE,60,7.0,10.0,85,0.00,,,0.00,,2013-02-22 18:22:00,
2013-02-22 12:32:00,26.0,22.0,29.85,ENE,59,6.0,9.0,85,0.00,,,0.00,,2013-02-22 18:32:00,
2013-02-22 12:42:00,26.0,22.0,29.85,ENE,59,6.0,9.0,85,0.00,,,0.00,,2013-02-22 18:42:00,
2013-02-22 12:51:00,27.0,23.0,29.84,ENE,58,7.0,10.0,84,0.00,,,0.00,,2013-02-22 18:51:00,
2013-02-22 13:01:00,27.0,23.0,29.83,ENE,70,5.0,10.0,84,0.00,,,0.00,,2013-02-22 19:01:00,
2013-02-22 13:11:00,27.0,23.0,29.83,NE,51,5.0,9.0,84,0.02,,,0.02,,2013-02-22 19:11:00,
2013-02-22 13:21:00,27.0,23.0,29.83,NE,51,5.0,9.0,84,0.02,,,0.02,,2013-02-22 19:21:00,
2013-02-22 13:31:00,28.0,24.0,29.82,ENE,61,4.0,8.0,84,0.04,,,0.04,,2013-02-22 19:31:00,
2013-02-22 13:41:00,28.0,24.0,29.82,NE,55,4.0,8.0,84,0.06,,,0.06,,2013-02-22 19:41:00,
2013-02-22 13:52:00,28.0,24.0,29.82,NE,55,4.0,8.0,84,0.06,,,0.06,,2013-02-22 19:52:00,
2013-02-22 14:01:00,28.0,24.0,29.82,ENE,67,3.0,5.0,84,0.07,,,0.07,,2013-02-22 20:01:00,
2013-02-22 14:11:00,28.0,24.0,29.82,ENE,67,3.0,5.0,84,0.07,,,0.07,,2013-02-22 20:11:00,
2013-02-22 14:21:00,28.0,24.0,29.82,ENE,72,3.0,7.0,84,0.07,,,0.09,,2013-02-22 20:21:00,
2013-02-22 14:31:00,28.0,24.0,29.82,ENE,59,2.0,5.0,83,0.06,,,0.10,,2013-02-22 20:31:00,
2013-02-22 14:41:00,28.0,24.0,29.82,ENE,59,2.0,5.0,83,0.06,,,0.10,,2013-02-22 20:41:00,
2013-02-22 14:52:00,27.0,23.0,29.82,NE,47,4.0,5.0,83,0.05,,,0.11,,2013-02-22 20:52:00,
2013-02-22 15:01:00,28.0,24.0,29.81,NE,47,2.0,5.0,83,0.05,,,0.12,,2013-02-22 21:01:00,
2013-02-22 15:11:00,28.0,24.0,29.81,ENE,57,2.0,5.0,84,0.03,,,0.12,,2013-02-22 21:11:00,
2013-02-22 15:21:00,28.0,24.0,29.81,ENE,57,2.0,5.0,84,0.03,,,0.12,,2013-02-22 21:21:00,
2013-02-22 15:32:00,28.0,24.0,29.81,NE,54,2.0,4.0,84,0.03,,,0.13,,2013-02-22 21:32:00,
2013-02-22 15:42:00,27.0,23.0,29.81,NE,43,3.0,5.0,85,0.02,,,0.13,,2013-02-22 21:42:00,
2013-02-22 15:51:00,27.0,23.0,29.81,NE,43,3.0,5.0,85,0.02,,,0.13,,2013-02-22 21:51:00,
2013-02-22 16:01:00,27.0,23.0,29.81,NNE,29,2.0,4.0,85,0.02,,,0.14,,2013-02-22 22:01:00,
2013-02-22 16:11:00,27.0,23.0,29.81,NNE,29,2.0,4.0,85,0.02,,,0.14,,2013-02-22 22:11:00,
2013-02-22 16:21:00,27.0,23.0,29.81,NNE,18,2.0,5.0,86,0.02,,,0.14,,2013-02-22 22:21:00,
2013-02-22 16:31:00,27.0,23.0,29.81,NNE,12,1.0,5.0,86,0.01,,,0.14,,2013-02-22 22:31:00,
2013-02-22 16:41:00,27.0,23.0,29.81,NNE,12,1.0,5.0,86,0.01,,,0.14,,2013-02-22 22:41:00,
2013-02-22 16:51:00,27.0,24.0,29.80,NNW,331,3.0,6.0,87,0.02,,,0.15,,2013-02-22 22:51:00,
2013-02-22 17:01:00,26.0,23.0,29.81,North,356,3.0,7.0,87,0.01,,,0.15,,2013-02-22 23:01:00,
2013-02-22 17:11:00,26.0,23.0,29.81,North,356,3.0,7.0,87,0.01,,,0.15,,2013-02-22 23:11:00,
2013-02-22 17:21:00,26.0,23.0,29.81,North,1,4.0,7.0,87,0.01,,,0.15,,2013-02-22 23:21:00,
2013-02-22 17:31:00,26.0,23.0,29.82,NNW,341,3.0,6.0,87,0.01,,,0.15,,2013-02-22 23:31:00,
2013-02-22 17:41:00,26.0,23.0,29.82,NNW,341,3.0,6.0,87,0.01,,,0.15,,2013-02-22 23:41:00,
2013-02-22 17:52:00,26.0,23.0,29.82,NNW,342,3.0,5.0,88,0.00,,,0.15,,2013-02-22 23:52:00,
2013-02-22 18:01:00,25.0,22.0,29.82,NW,309,2.0,4.0,88,0.00,,,0.15,,2013-02-23 00:01:00,
2013-02-22 18:11:00,25.0,22.0,29.83,NW,309,3.0,5.0,89,0.00,,,0.15,,2013-02-23 00:11:00,
2013-02-22 18:21:00,25.0,22.0,29.83,NW,309,3.0,5.0,89,0.00,,,0.15,,2013-02-23 00:21:00,
2013-02-22 18:32:00,25.0,22.0,29.83,NW,309,3.0,5.0,89,0.00,,,0.15,,2013-02-23 00:32:00,
2013-02-22 18:42:00,25.0,22.0,29.83,NW,309,3.0,5.0,89,0.00,,,0.15,,2013-02-23 00:42:00,
2013-02-22 18:51:00,25.0,22.0,29.83,WNW,302,4.0,7.0,90,0.00,,,0.15,,2013-02-23 00:51:00,
2013-02-22 19:01:00,25.0,22.0,29.83,NW,313,5.0,6.0,90,0.00,,,0.15,,2013-02-23 01:01:00,
2013-02-22 19:11:00,25.0,22.0,29.83,NW,313,5.0,6.0,90,0.00,,,0.15,,2013-02-23 01:11:00,
2013-02-22 19:21:00,25.0,22.0,29.83,NW,308,4.0,7.0,90,0.00,,,0.15,,2013-02-23 01:21:00,
2013-02-22 19:31:00,25.0,23.0,29.83,NW,320,5.0,8.0,91,0.00,,,0.15,,2013-02-23 01:31:00,
2013-02-22 19:42:00,25.0,23.0,29.83,NW,320,5.0,8.0,91,0.00,,,0.15,,2013-02-23 01:42:00,
2013-02-22 19:51:00,25.0,23.0,29.83,NW,308,5.0,8.0,91,0.00,,,0.15,,2013-02-23 01:51:00,
2013-02-22 20:01:00,25.0,23.0,29.82,WNW,303,4.0,7.0,91,0.00,,,0.15,,2013-02-23 02:01:00,
2013-02-22 20:11:00,24.0,22.0,29.82,NW,305,4.0,8.0,90,0.00,,,0.15,,2013-02-23 02:11:00,
2013-02-22 20:21:00,24.0,22.0,29.82,NW,305,4.0,8.0,90,0.00,,,0.15,,2013-02-23 02:21:00,
2013-02-22 20:31:00,24.0,22.0,29.82,NW,307,5.0,8.0,90,0.00,,,0.15,,2013-02-23 02:31:00,
2013-02-22 20:42:00,24.0,22.0,29.82,NW,307,5.0,8.0,90,0.00,,,0.15,,2013-02-23 02:42:00,
2013-02-22 20:52:00,24.0,22.0,29.82,NW,311,6.0,9.0,91,0.00,,,0.15,,2013-02-23 02:52:00,
2013-02-22 21:01:00,24.0,22.0,29.82,WNW,300,6.0,9.0,90,0.00,,,0.15,,2013-02-23 03:01:00,
2013-02-22 21:11:00,24.0,22.0,29.82,NW,314,5.0,8.0,90,0.00,,,0.15,,2013-02-23 03:11:00,
2013-02-22 21:21:00,24.0,22.0,29.82,NW,314,5.0,8.0,90,0.00,,,0.15,,2013-02-23 03:21:00,
2013-02-22 21:32:00,24.0,22.0,29.82,NW,313,7.0,9.0,91,0.00,,,0.15,,2013-02-23 03:32:00,
2013-02-22 21:41:00,24.0,22.0,29.82,NW,313,7.0,9.0,91,0.00,,,0.15,,2013-02-23 03:41:00,
2013-02-22 21:51:00,24.0,22.0,29.81,NW,305,6.0,9.0,90,0.00,,,0.15,,2013-02-23 03:51:00,
2013-02-22 22:01:00,24.0,22.0,29.81,NW,312,6.0,8.0,90,0.00,,,0.15,,2013-02-23 04:01:00,
2013-02-22 22:11:00,24.0,22.0,29.81,WNW,295,6.0,10.0,90,0.00,,,0.15,,2013-02-23 04:11:00,
2013-02-22 22:21:00,24.0,22.0,29.81,WNW,295,6.0,10.0,90,0.00,,,0.15,,2013-02-23 04:21:00,
2013-02-22 22:31:00,24.0,22.0,29.81,NW,306,5.0,8.0,90,0.00,,,0.15,,2013-02-23 04:31:00,
2013-02-22 22:41:00,24.0,22.0,29.81,NW,306,5.0,8.0,90,0.00,,,0.15,,2013-02-23 04:41:00,
2013-02-22 22:51:00,24.0,22.0,29.81,WNW,300,5.0,8.0,90,0.00,,,0.15,,2013-02-23 04:51:00,
2013-02-22 23:02:00,23.0,21.0,29.81,WNW,285,6.0,8.0,90,0.00,,,0.15,,2013-02-23 05:02:00,
2013-02-22 23:12:00,23.0,21.0,29.81,WNW,285,6.0,8.0,90,0.00,,,0.15,,2013-02-23 05:12:00,
2013-02-22 23:22:00,23.0,21.0,29.81,WNW,298,5.0,8.0,90,0.00,,,0.15,,2013-02-23 05:22:00,
2013-02-22 23:32:00,23.0,21.0,29.81,WNW,296,5.0,7.0,90,0.00,,,0.15,,2013-02-23 05:32:00,
2013-02-22 23:42:00,23.0,21.0,29.81,WNW,296,5.0,7.0,90,0.00,,,0.15,,2013-02-23 05:42:00,
2013-02-22 23:52:00,23.0,21.0,29.81,WNW,286,5.0,8.0,90,0.00,,,0.15,,2013-02-23 05:52:00,